Flag for Canada Weather past 2 weeks in North Bay, Ontario, Canada

36 °F


Feels Like: 27 °F
Forecast: 26 / 43 °F
Wind: 13 mph from South

Location: North Bay

Current Time: Nov 25, 2015 at 1:28:28 PM

Latest Report: Nov 25, 2015 at 1:00 PM

Visibility: 30 mi

Pressure: 30.50 "Hg

Humidity: 81%

Dew point: 30 °F

Location of North BayLocation

Historic Weather in North Bay — Graph


North Bay temperature yesterday

Maximum temperature yesterday: 30 °F (at 2:00 PM)
Minimum temperature yesterday: 18 °F (at 4:03 AM)
Average temperature yesterday: 25 °F

Past Weeks' High & Low Weather Summary

High66 °F (Nov 18, 3:00 PM)100% (Nov 11, 8:00 PM)30.55 "Hg (Nov 11, 8:00 PM)
Low5 °F (Nov 23, 2:00 AM)42% (Nov 16, 1:00 PM)29.21 "Hg (Nov 12, 4:00 PM)
Average35 °F86%29.99 "Hg
* Reported Nov 10 12:00 Noon — Nov 25 12:00 Noon, North Bay, Weather by CustomWeather, © 2015

Note: Actual official high and low records may vary slightly from our data, if they occured in-between our weather recording intervals... More about our weather records


North Bay weather history for previous 24 hours

Time TempWeatherWind HumidityBarometerVisibility
12:00 PM
Wed, Nov 25
36 °FPartly sunny.14 mph81%30.52 "Hg30 mi
11:00 AM34 °FScattered clouds.15 mph87%30.54 "Hg30 mi
10:00 AM32 °FScattered clouds.13 mph93%30.55 "Hg15 mi
9:00 AM30 °FBroken clouds.7 mph100%30.55 "Hg15 mi
8:00 AM28 °FMore clouds than sun.7 mph100%30.54 "Hg15 mi
7:00 AM28 °FOvercast.8 mph100%30.53 "Hg15 mi
6:00 AM28 °FOvercast.8 mph100%30.52 "Hg9 mi
5:00 AM28 °FMostly cloudy.7 mph100%30.51 "Hg9 mi
4:00 AM27 °FMostly cloudy.8 mph100%30.49 "Hg9 mi
3:00 AM27 °FOvercast.6 mph100%30.49 "Hg9 mi
2:00 AM27 °FOvercast.6 mph100%30.48 "Hg9 mi
1:00 AM27 °FOvercast.8 mph100%30.46 "Hg9 mi
12:00 AM25 °FOvercast.7 mph100%30.45 "Hg9 mi
11:00 PM
Tue, Nov 24
23 °FOvercast.7 mph100%30.45 "Hg9 mi
10:00 PM23 °FIce fog.7 mph93%30.45 "Hg1 mi
9:00 PM25 °FPassing clouds.6 mph100%30.45 "Hg15 mi
8:00 PM27 °FPassing clouds.3 mph100%30.43 "Hg15 mi
7:00 PM28 °FPartly cloudy.No wind93%30.42 "Hg15 mi
6:00 PM27 °FPassing clouds.2 mph100%30.40 "Hg15 mi
5:00 PM27 °FPassing clouds.No wind100%30.38 "Hg15 mi
4:00 PM30 °FBroken clouds.5 mph86%30.35 "Hg15 mi
3:00 PM30 °FMostly cloudy.3 mph86%30.33 "Hg15 mi
2:00 PM30 °FPartly sunny.3 mph86%30.32 "Hg15 mi
1:00 PM28 °FPartly sunny.2 mph93%30.30 "Hg15 mi
Weather by CustomWeather, © 2015

See weather overviewHow to use our weather pages